Huvudsida
METAR-TAF:

METAR-TAF

Flygplatser :

Persian Gulf International Airport

Asaluyeh, Iran

latitud: 27-22-46N, longitud: 52-44-15E, höjd: 8 m

Aktuellt väderrapport

Denna rapport gjordes för 19 minuter sedan, klockan 07:30 UTC
Vind 16 kt från väst
Temperatur 27°C
Fuktighet 39%
Tryck 1014 hPa
Sikt 10 km eller mer
Inga moln under 1 500 m eller inga cumulonimbus

METAR: OIBP 310730Z 28016KT CAVOK 27/12 Q1013 A2993

Tid: 12:19 (07:49 UTC)


TAF: saknas

Aktuella väderrapporter och prognoser från 4000 flygplatser (METAR- och TAF-rapporter).

De tillgängliga stationerna syns som gula och röda prickar på kartan.

För musen över prickarna för att se namnen på stationerna.

Klicka sedan för att få väderrapporter och prognoser.

För att ändra kartan: Klicka på de gröna knapparna med ett svart kors på för att zooma in; den gröna knappen med ett streck på för att zooma ut; eller på de gröna pilarna för angränsande kartor.


METAR-TAF: